Regional Weather Roundup
Issued by NWS Sterling, VA

Home | Current Version | Previous Version | Graphics & Text | Print | Product List | Glossary On
Versions: 1 2 3 4 5 6 7 8 9 10 11 12 13 14 15 16 17 18 19 20 21 22 23 24 25 26 27 28 29 30 31 32 33 34 35 36 37 38 39 40 41 42 43 44 45 46 47 48 49 50
000
ASUS41 KLWX 300910
RWRLWX

REGIONAL WEATHER ROUNDUP
NATIONAL WEATHER SERVICE BALTIMORE MD/WASHINGTON DC
500 AM EDT SUN AUG 30 2015

Note: "FAIR" indicates few or no clouds below 12,000 feet
with no significant weather and/or obstructions to visibility.
 TC=TEMPERATURE CELSIUS

 * =Non NWS site. Station does not report precipitation (e.g. rain,
    snow, etc.), thunder, or fog.

DCZ001-MDZ009-015-VAZ040>042-051-053>054-301000-
WASHINGTON METRO

CITY           SKY/WX    TMP DP  RH WIND       PRES   REMARKS
WASHINGTON NAT MOCLDY    70  64  81 S7        30.10S
DULLES         PTCLDY    67  63  87 CALM      30.10R
ANDREWS AFB    CLEAR     67  62  86 SW8       30.10S
FT BELVOIR     CLEAR     65  63  93 CALM      30.10S
QUANTICO       CLEAR     71  62  73 SW5       30.11S
COLLEGE PARK*  CLEAR     70  63  78 CALM      30.10R
LEESBURG*      CLEAR     66  66 100 CALM      30.11S
MANASSAS*      CLEAR     64  64 100 CALM      30.10S
GAITHERSBURG*  CLEAR     66  61  82 CALM      30.15S

$$

MDZ006>007-011-014-301000-
BALTIMORE METRO

CITY           SKY/WX    TMP DP  RH WIND       PRES   REMARKS
BWI AIRPORT    PTCLDY    67  63  87 CALM      30.10R
MD SCIENCE CTR   N/A     71  63  75 MISG      30.10S
MARTIN STATE   CLEAR     70  68  94 S3        30.11S
ANNAPOLIS      CLEAR     69  63  81 CALM      30.09S
FORT MEADE*    CLEAR     61  59  94 CALM      30.12S

$$

MDZ012-015-019>023-301000-
MARYLAND EASTERN SHORE

CITY           SKY/WX    TMP DP  RH WIND       PRES   REMARKS
OCEAN CITY     PTCLDY    63  61  93 CALM      30.11S
SALISBURY      PTCLDY    61  59  93 CALM      30.11S
BAY BRIDGE AP*   N/A     72  64  78 SW6       30.10S
CAMBRIDGE*     CLEAR     63  61  94 CALM      30.10S

$$

MDZ017>025-301000-
SOUTHERN MARYLAND

CITY           SKY/WX    TMP DP  RH WIND       PRES   REMARKS
PATUXENT RIVER CLEAR     63  61  93 CALM      30.10S
ST INIGOES     CLEAR     70  66  87 SW7       30.10S
LEONARDTOWN*   CLEAR     66  61  82 CALM      30.12S

$$

MDZ003>005-301000-
NORTH CENTRAL MARYLAND

CITY           SKY/WX    TMP DP  RH WIND       PRES   REMARKS
FREDERICK*     CLEAR     64  64 100 S3        30.12S
HAGERSTOWN APT CLEAR     68  62  81 CALM      30.10S
WESTMINSTER*   CLEAR     68  63  83 CALM      30.11S

$$

MDZ501>502-301000-
WESTERN MARYLAND

CITY           SKY/WX    TMP DP  RH WIND       PRES   REMARKS
OAKLAND*       CLEAR     63  55  77 SW8       30.20S
CUMBERLAND*    CLEAR     63  61  94 CALM      30.15S

$$

VAZ025>031-301000-
SHENANDOAH VALLEY

CITY           SKY/WX    TMP DP  RH WIND       PRES   REMARKS
WINCHESTER*    CLEAR     68  61  77 SW3       30.10S
FRONT ROYAL*   FAIR      64  61  88 S5        30.10S
LURAY*         FAIR      61  61 100 CALM      30.12S
NEW MARKET*    FAIR      60  59  97 CALM      30.12S
STAUNTON*      PTCLDY    66  61  83 CALM      30.15F
WAYNESBORO*    FAIR      65  61  85 CALM      30.15S

$$

WVZ021-048>050-054>055-301000-
EASTERN WEST VIRGINIA PANHANDLE

CITY           SKY/WX    TMP DP  RH WIND       PRES   REMARKS
MARTINSBURG    CLEAR     61  60  97 CALM      30.09F FOG
PETERSBURG*    CLEAR     57  57  97 CALM      30.14S FOG

$$

VAZ036>039-050-301000-
CENTRAL FOOTHILLS

CITY           SKY/WX    TMP DP  RH WIND       PRES   REMARKS
CHARLOTTESVILL CLEAR     66  63  90 SW3       30.11S
CULPEPER*      CLEAR     63  62  96 CALM      30.11S
ORANGE*        PTCLDY    64  63  94 CALM      30.12F
GORDONSVILLE*  FAIR      63  62  98 CALM      30.11S
WARRENTON*     FAIR      68  65  91 SW5       30.10S

$$

VAZ055>057-301000-
NORTH AND CENTRAL PIEDMONT

CITY           SKY/WX    TMP DP  RH WIND       PRES   REMARKS
FREDERICKSBRG* PTCLDY    69  64  84 CALM      30.10S
STAFFORD*      CLEAR     65  61  87 CALM      30.14F

$$

NCZ024-NYZ072-PAZ021-071-VAZ022-071-301000-
OTHER REGIONAL OBSERVATIONS

CITY           SKY/WX    TMP DP  RH WIND       PRES   REMARKS
NEW YORK CITY  CLEAR     73  60  63 VRB6      30.12R
PHILADELPHIA   PTCLDY    71  62  73 S6        30.11S
PITTSBURGH     CLOUDY    71  63  75 W9        30.10R
ROANOKE        CLOUDY    66  61  84 CALM      30.17R
RICHMOND       MOCLDY    67  62  84 SW3       30.11F
RALEIGH        MOCLDY    66  61  84 CALM      30.13F

$$

ANZ530>537-301000-
MARINE OBSERVATIONS

STATION/POSITION TIME  TEMP    WIND        PRES
                       AIR SEA DIR/SP/G
                 (UTC) (F)     (DEG/KT/KT) (MB)
THOMAS PT LIGHT  0900   72 79  220/ 11/ 12 1019.7R

$$




USA.gov is the U.S. government's official web portal to all federal, state and local government web resources and services.